www.pogodaiklimat.ru
ПОГОДА в Хермистоне
Время
и дата
00:53 24.05
01:53 24.05
02:53 24.05
03:53 24.05
04:53 24.05
05:53 24.05
06:53 24.05
07:53 24.05
08:53 24.05
09:53 24.05
10:53 24.05
11:53 24.05
12:53 24.05
13:53 24.05
14:53 24.05
15:53 24.05
16:53 24.05
17:53 24.05
18:53 24.05
19:53 24.05
20:53 24.05
21:53 24.05
22:53 24.05
23:53 24.05
00:53 25.05
01:53 25.05
02:53 25.05
03:53 25.05
04:53 25.05
05:53 25.05
06:53 25.05
07:53 25.05
08:53 25.05
09:53 25.05
10:53 25.05
11:53 25.05
12:53 25.05
13:53 25.05
14:53 25.05
15:53 25.05
16:53 25.05
17:53 25.05
18:53 25.05
19:53 25.05
20:53 25.05
21:53 25.05
22:53 25.05
23:53 25.05
Ветер
(напр.,м/с)
Видим. Явления Облачность Т
(С)
Тd
(С)
f
(%)
Тe
(С)
Тes
(С)
Комфортность P
(гПа)
Po
(гПа)
Тmin
(С)
Tmax
(С)
R
(мм)
R24
(мм)
S
(см)
ЮЗ 2 16 км ясно +11.1 +6.7 74 +10 +10 1012.4 989.3
ЮЗ 2 16 км ясно +10.6 +6.1 74 +9 +9 1012.1 989.3
Ю 3 16 км ясно +10.0 +5.6 74 +8 +8 1011.9 989.0
Ю 3 16 км ясно +10.0 +5.6 74 +8 +8 1011.5 988.7 +9.4 +12.8
Ю 3 16 км ясно +8.9 +5.6 80 +6 +6 1011.4 988.7
ЮЗ 4 16 км ясно +12.8 +6.7 66 +11 +11 1011.3 988.3
ЮЗ 5 16 км ясно +13.9 +6.1 59 +12 +13 1011.1 988.3
ЮЗ 5 16 км ясно +16.7 +6.1 50 +16 +18 1010.7 988.0
ЮЗ 6
{10}
16 км ясно +17.8 +5.0 43 +17 +20 1010.3 987.3
З 5
{9}
16 км ясно +18.9 +3.3 35 +19 +25 1009.7 986.7 +8.3 +19.4
З 7
{10}
16 км ясно +20.6 +3.9 33 +21 +25 комфорт 1008.8 986.0
З 6
{12}
16 км 2/0 3600 m
[Ac]
+20.0 +3.9 35 +20 +26 1008.5 985.7
З 5 16 км ясно +21.1 +1.7 28 +21 +31 комфорт 1007.9 985.0
ЮЗ 7
{11}
16 км 2/0 3300 m
[Ac]
+22.2 +0.6 24 +22 +26 комфорт 1006.9 984.4
ЮЗ 7
{13}
16 км ясно +22.2 +0.6 24 +22 +26 комфорт 1006.2 983.4
З 9
{12}
16 км ясно +23.3 +2.2 25 +23 +24 комфорт 1005.6 983.0 +18.3 +23.9
З 8
{14}
16 км ясно +21.7 +3.9 31 +22 +23 комфорт 1005.6 982.7
ЮЗ 8
{14}
16 км 8/0 2700 m
[Ac]
+18.3 +6.1 45 +18 +18 1005.6 983.0
З 8
{13}
16 км 10/0 2550 m
[Ac]
+17.2 +5.0 44 +16 +16 1006.2 983.4
ЮЗ 7
{11}
16 км 10/0 2700 m
[Ac]
+16.1 +6.1 51 +15 +15 1006.5 983.7
ЮЗ 8
{12}
16 км 10/0 2400 m
[Ac]
+14.4 +6.7 60 +12 +12 1007.4 984.7
ЮЗ 6 16 км 10/0 2700 m
[Ac]
+14.4 +6.7 60 +13 +13 1007.4 984.7 +14.4 +23.3
ЮЗ 6 16 км 10/0 2400 m
[Ac]
+13.9 +6.7 62 +12 +12 1007.6 985.0
ЮЗ 6
{10}
16 км 8/0 2250 m
[Ac]
+13.3 +6.7 64 +11 +11 1007.8 985.0
ЮЗ 6 16 км 2/0 2250 m
[Ac]
+12.8 +6.7 66 +10 +10 1007.8 985.0
ЮЗ 5 16 км 8/5 1500 m
[Ac]
+12.8 +6.7 66 +11 +11 1008.2 985.4
ЮЗ 6 16 км 10/10 1800 м +13.3 +6.7 64 +11 +11 1008.4 985.7
ЮЗ 5 16 км 10/0 2100 m
[Ac]
+12.8 +6.7 66 +11 +11 1008.8 986.0 +12.2 +14.4
ЮЗ 6 16 км 8/8 1650 m
[Ac]
+12.2 +5.0 61 +10 +10 1009.4 986.7
ЮЗ 5
{11}
16 км 8/2 1470 m
[Ac]
+11.7 +3.9 59 +9 +9 1010.1 987.3
ЮЗ 8
{13}
16 км 10/10 1950 м +12.2 +3.3 54 +9 +9 1010.2 987.3
З 10
{14}
16 км 8/0 2250 m
[Ac]
+13.3 +2.2 47 +10 +11 1010.6 987.7
З 11
{16}
16 км ясно +15.6 +2.8 42 +13 +14 1010.6 987.7
ЮЗ 11
{16}
16 км 2/2 1500 м +16.1 +1.7 38 +14 +14 1010.7 988.0 +11.7 +16.7
ЮЗ 10
{17}
16 км 2/2 1800 м +17.8 +1.1 32 +17 +17 1010.8 988.0
ЮЗ 11
{19}
16 км ясно +17.8 0.0 30 +16 +17 1011.2 988.3
ЮЗ 11
{18}
16 км ясно +18.3 +1.1 31 +17 +17 1011.3 988.3
ЮЗ 12
{17}
16 км ясно +17.8 +2.2 35 +16 +16 1011.5 988.7
ЮЗ 12
{17}
16 км ясно +19.4 +2.2 32 +19 +19 1011.4 988.7
З 11
{17}
16 км ясно +18.9 +2.8 34 +18 +18 1011.7 988.7 +16.1 +20.0
З 11
{19}
16 км ясно +16.7 +3.3 41 +15 +15 1012.3 989.3
З 9
{15}
16 км ясно +15.0 +3.9 47 +13 +13 1013.0 990.0
З 10
{16}
16 км 2/0 3300 m
[Ac]
+14.4 +3.3 47 +12 +12 1013.3 990.3
З 6
{10}
16 км ясно +13.3 +3.3 51 +11 +11 1014.0 991.0
ЮЗ 6
{11}
16 км ясно +12.8 +3.3 52 +11 +11 1014.6 991.6
З 6
{11}
16 км ясно +11.7 +2.8 54 +9 +9 1015.1 992.0 +11.7 +18.9
ЮЗ 7
{11}
16 км ясно +11.7 +2.8 54 +9 +9 1015.7 992.6
ЮЗ 6
{10}
16 км ясно +10.6 +3.3 61 +8 +8 1015.9 993.0
Местоположение метеостанции Hermiston Municipal Airport: широта 45.8258 долгота -119.2611 высота над уровнем моря 194 м.
В архиве по умолчанию представлена погода в Хермистоне за последние 1-2 суток. Обновление информации о фактической погоде в базе происходит ежечасно! Архивные данные за месяц целиком и за предыдущие месяцы Вы можете получить, выбрав интересующий диапазон дат из раскрывающегося списка и нажав кнопку "Ввод!".
Внимание! Архив погоды МЕТАР в базе сайта по станциям, не включенным в климатический монитор, хранится не более 60 дней. Нет смысла пытаться выбрать более раннюю дату.
*Определитесь, кто Вы:
Внимание! Время в таблицах - местное (без учета летнего времени). Для получения всемирного времени необходимо вычесть поправку, которая равна -8 ч.
Смотрите также архив погоды в соседних городах и на ближайших метеорологических станциях:
Партнеры нашего сайта:      
Пояснения к столбцам:
  • Ветер - указаны скорость ветра в м/с - средняя за 10 мин, порывы в срок и между сроками (в фигурных скобках) и направление, откуда дует ветер: С - северный,
  • СВ - северо-восточный, В - восточный, ЮВ - юго-восточный, Ю - южный, ЮЗ - юго-западный, З - западный, СЗ - северо-западный.
  • Видимость - горизонтальная дальность видимости в метрах или километрах. При видимости от 1 до 10 км при отсутствии осадков обычно наблюдается дымка, при ухудшении видимости до 1 км и менее - туман. В сухую погоду видимость может ухудшаться дымом, пылью или мглою.
  • Явления - указаны атмосферные явления, наблюдавшиеся в срок или в последний час перед сроком; фигурными скобками обозначены явления, наблюдавшиеся между сроками (за 1-3 часа до срока); квадратными скобками обозначены град или гололедные отложения с указанием их диаметра в мм.
  • Облачность - указаны через наклонную черту общая и нижняя облачность в баллах и высота нижней границы облаков в метрах; квадратными скобками обозначены формы облаков: Ci - перистые, Cs - перисто-слоистые, Cc - перисто-кучевые, Ac - высококучевые, As - высокослоистые, Sc - слоисто-кучевые, Ns - слоисто-дождевые, Cu - кучевые, Cb - кучево-дождевые. Подробнее классификацию облаков см. в Атласе облаков (PDF).
  • T - Температура воздуха - температура, измеренная на высоте 2 м над землей.
  • Td - Температура точки росы - температура, при понижении до которой содержащийся в воздухе водяной пар достигнет насыщения.
  • f - Относительная влажность воздуха - влажноcть воздуха, измеренная на высоте 2 м над землей.
  • Te - Эффективная температура - температура, которую ощущает одетый по сезону человек в тени. Характеристика душности погоды. При расчете учитывается влияние влажности воздуха и скорости ветра на теплоощущения человека.
  • Tes - Эффективная температура на солнце - температура, которую ощущает человек, с поправкой на солнечный нагрев. Характеристика знойности погоды. Зависит от высоты солнца над горизонтом, облачности и скорости ветра. Ночью, в пасмурную погоду, а также при ветре 12 м/с и более поправка равна нулю.
  • P - Атмосферное давление - приведенное к уровню моря атмосферное давление.
  • Po - Атмосферное давление - измеренное на уровне метеостанции атмосферное давление.
  • Tmin - Минимальная температура - минимум температуры воздуха на высоте 2 м над землей.
  • Tmax - Максимальная температура - максимум температуры воздуха на высоте 2 м над землей.
  • R - Количество осадков - Количество выпавших осадков за период времени, мм. При наведении курсора мыши на число - период времени, за который выпало указанное количество осадков.
  • R24 - Количество осадков - Количество выпавших осадков за 24 часа, мм.
  • S - Снежный покров - Высота снежного покрова, см. При наведении курсора мыши на число - состояние снежного покрова и степень покрытия местности в баллах.